www.pogodaiklimat.ru
ПОГОДА в Лас-Крусесе
Время
и дата
02:35 30.01
02:55 30.01
03:15 30.01
03:35 30.01
03:55 30.01
04:15 30.01
04:35 30.01
04:55 30.01
05:15 30.01
05:35 30.01
05:55 30.01
06:15 30.01
06:35 30.01
06:55 30.01
07:15 30.01
07:35 30.01
07:55 30.01
08:15 30.01
08:35 30.01
08:55 30.01
09:15 30.01
09:35 30.01
09:55 30.01
10:15 30.01
10:35 30.01
10:55 30.01
11:15 30.01
11:35 30.01
11:55 30.01
12:15 30.01
12:35 30.01
12:55 30.01
13:15 30.01
13:35 30.01
13:55 30.01
14:15 30.01
14:35 30.01
14:55 30.01
15:15 30.01
15:35 30.01
15:55 30.01
16:15 30.01
16:35 30.01
16:55 30.01
17:15 30.01
17:35 30.01
17:55 30.01
18:15 30.01
Ветер
(напр.,м/с)
Видим. Явления Облачность Т
(С)
Тd
(С)
f
(%)
Тe
(С)
Тes
(С)
Комфортность P
(гПа)
Po
(гПа)
Тmin
(С)
Tmax
(С)
R
(мм)
R24
(мм)
S
(см)
штиль 0 16 км ясно +0.6 -10.5 43 0 0 862.5
штиль 0 16 км ясно -0.3 -10.5 46 -1 -1 862.5
ЮЗ 2 16 км ясно 0.0 -10.5 45 -3 -3 862.5
ЮЗ 2 16 км ясно -0.5 -10.5 47 -3 -3 862.5
штиль 0 16 км ясно +0.1 -10.5 45 0 0 862.8
З 2 16 км ясно +0.9 -10.5 42 -2 -2 862.8
штиль 0 16 км ясно -0.5 -10.6 46 -1 -1 862.8
штиль 0 16 км ясно +2.5 -10.4 38 +2 +2 862.5 -0.7 +7.5
ЮЗ 2 16 км ясно +0.9 -10.3 43 -2 -2 862.5
штиль 0 16 км ясно 0.0 -10.0 47 0 0 862.8
штиль 0 16 км ясно +0.4 -10.0 46 0 0 863.1
штиль 0 16 км ясно +2.8 -9.1 41 +3 +3 863.1
штиль 0 16 км ясно +3.7 -9.1 39 +4 +4 863.3
ЮЗ 2 16 км ясно +2.3 -8.7 44 0 0 863.3
Ю 2 16 км ясно +1.1 -9.0 47 -2 -2 863.3
Ю 2 16 км ясно +1.3 -8.5 48 -1 -1 863.6
штиль 0 16 км ясно +4.4 -8.4 39 +4 +4 863.9
штиль 0 16 км ясно +7.0 -8.4 32 +7 +8 863.9
штиль 0 16 км ясно +8.1 -7.5 32 +8 +10 864.2
штиль 0 16 км ясно +9.7 -6.5 31 +10 +11 864.2
Ю 2 16 км ясно +11.5 -6.3 28 +11 +14 864.5
ЮВ 3 16 км ясно +12.6 -5.5 28 +12 +14 864.5
Ю 3 16 км ясно +13.0 -5.7 27 +12 +15 864.5
Ю 3 16 км ясно +14.2 -5.0 26 +14 +19 864.5
Ю 2 16 км ясно +15.0 -4.2 26 +15 +21 864.2
Ю 3 16 км ясно +15.6 -4.4 25 +15 +20 863.9 -0.4 +15.6
Ю 4 16 км ясно +16.8 -4.2 23 +16 +22 863.9
Ю 5 16 км ясно +17.3 -4.7 22 +17 +21 863.6
Ю 2 16 км ясно +17.5 -5.2 21 +18 +26 863.3
штиль 0 16 км ясно +17.5 -5.3 21 +18 +30 опасность
простуды
862.8
Ю 6
{8}
16 км ясно +19.0 -5.8 18 +18 +22 862.5
ЮЗ 8
{10}
16 км ясно +19.5 -6.5 17 +19 +20 862.2
ЮЗ 8
{14}
16 км ясно +19.3 -6.7 17 +18 +20 861.9
ЮЗ 6
{10}
16 км ясно +19.3 -6.7 17 +19 +22 861.6
ЮЗ 8
{10}
16 км ясно +19.7 -6.6 16 +19 +20 861.3
ЮЗ 9
{11}
16 км ясно +19.8 -6.6 16 +19 +19 861.0
ЮЗ 8
{11}
16 км ясно +19.8 -7.3 15 +19 +20 861.0
ЮЗ 7
{13}
16 км ясно +19.6 -7.1 16 +19 +21 861.0
ЮЗ 8
{10}
16 км ясно +19.5 -6.9 16 +19 +19 860.8
ЮЗ 7
{9}
16 км ясно +19.7 -6.9 16 +19 +20 860.8
ЮЗ 7 16 км ясно +19.7 -7.1 16 +19 +20 860.5
ЮЗ 5 16 км ясно +19.7 -7.0 16 +19 +20 860.5
ЮЗ 3 16 км ясно +19.3 -7.2 16 +19 +21 860.5
ЮЗ 4 16 км ясно +19.0 -7.8 15 +19 +20 860.5 +15.7 +20.0
ЮЗ 3 16 км ясно +18.4 -8.7 15 +19 +19 860.5
ЮЗ 3 16 км ясно +16.9 -8.9 16 +17 +17 860.5
ЮЗ 3 16 км ясно +14.4 -9.4 18 +14 +14 860.8
З 6 16 км ясно +13.3 -10.9 17 +12 +12 860.8
Местоположение метеостанции Las Cruces International Airport: широта 32.2894 долгота -106.9219 высота над уровнем моря 1358 м.
В архиве по умолчанию представлена погода в Лас-Крусесе за последние 1-2 суток. Обновление информации о фактической погоде в базе происходит ежечасно! Архивные данные за месяц целиком и за предыдущие месяцы Вы можете получить, выбрав интересующий диапазон дат из раскрывающегося списка и нажав кнопку "Ввод!".
Внимание! Архив погоды МЕТАР в базе сайта по станциям, не включенным в климатический монитор, хранится не более 60 дней. Нет смысла пытаться выбрать более раннюю дату.
*Определитесь, кто Вы:
Внимание! Время в таблицах - местное (без учета летнего времени). Для получения всемирного времени необходимо вычесть поправку, которая равна -7 ч.
Смотрите также архив погоды в соседних городах и на ближайших метеорологических станциях:
Партнеры нашего сайта:      
Пояснения к столбцам:
  • Ветер - указаны скорость ветра в м/с - средняя за 10 мин, порывы в срок и между сроками (в фигурных скобках) и направление, откуда дует ветер: С - северный,
  • СВ - северо-восточный, В - восточный, ЮВ - юго-восточный, Ю - южный, ЮЗ - юго-западный, З - западный, СЗ - северо-западный.
  • Видимость - горизонтальная дальность видимости в метрах или километрах. При видимости от 1 до 10 км при отсутствии осадков обычно наблюдается дымка, при ухудшении видимости до 1 км и менее - туман. В сухую погоду видимость может ухудшаться дымом, пылью или мглою.
  • Явления - указаны атмосферные явления, наблюдавшиеся в срок или в последний час перед сроком; фигурными скобками обозначены явления, наблюдавшиеся между сроками (за 1-3 часа до срока); квадратными скобками обозначены град или гололедные отложения с указанием их диаметра в мм.
  • Облачность - указаны через наклонную черту общая и нижняя облачность в баллах и высота нижней границы облаков в метрах; квадратными скобками обозначены формы облаков: Ci - перистые, Cs - перисто-слоистые, Cc - перисто-кучевые, Ac - высококучевые, As - высокослоистые, Sc - слоисто-кучевые, Ns - слоисто-дождевые, Cu - кучевые, Cb - кучево-дождевые. Подробнее классификацию облаков см. в Атласе облаков (PDF).
  • T - Температура воздуха - температура, измеренная на высоте 2 м над землей.
  • Td - Температура точки росы - температура, при понижении до которой содержащийся в воздухе водяной пар достигнет насыщения.
  • f - Относительная влажность воздуха - влажноcть воздуха, измеренная на высоте 2 м над землей.
  • Te - Эффективная температура - температура, которую ощущает одетый по сезону человек в тени. Характеристика душности погоды. При расчете учитывается влияние влажности воздуха и скорости ветра на теплоощущения человека.
  • Tes - Эффективная температура на солнце - температура, которую ощущает человек, с поправкой на солнечный нагрев. Характеристика знойности погоды. Зависит от высоты солнца над горизонтом, облачности и скорости ветра. Ночью, в пасмурную погоду, а также при ветре 12 м/с и более поправка равна нулю.
  • P - Атмосферное давление - приведенное к уровню моря атмосферное давление.
  • Po - Атмосферное давление - измеренное на уровне метеостанции атмосферное давление.
  • Tmin - Минимальная температура - минимум температуры воздуха на высоте 2 м над землей.
  • Tmax - Максимальная температура - максимум температуры воздуха на высоте 2 м над землей.
  • R - Количество осадков - Количество выпавших осадков за период времени, мм. При наведении курсора мыши на число - период времени, за который выпало указанное количество осадков.
  • R24 - Количество осадков - Количество выпавших осадков за 24 часа, мм.
  • S - Снежный покров - Высота снежного покрова, см. При наведении курсора мыши на число - состояние снежного покрова и степень покрытия местности в баллах.